NK7E Weather Reports


Display with metric or nautical units.
time (UTC)temp
F
wind
direction
speed
MPH
gust
MPH
rain 1hr
in
rain 24hr
in
rain mn
in
humidity
%
barometer
mb
20260507224516 88 248 6.0 13.0 0.00 0.00 0.00 14 1010.3
20260507223516 88 270 7.0 14.0 0.00 0.00 0.00 14 1010.4
20260507222516 87 293 8.0 15.0 0.00 0.00 0.00 15 1010.5
20260507221516 88 270 2.0 6.0 0.00 0.00 0.00 14 1010.6
20260507220516 87 225 2.0 5.0 0.00 0.00 0.00 15 1010.7
20260507215516 87 270 6.0 13.0 0.00 0.00 0.00 14 1010.9
20260507214516 87 225 3.0 8.0 0.00 0.00 0.00 15 1011.1
20260507213516 86 225 3.0 6.0 0.00 0.00 0.00 15 1011.3
20260507212516 86 293 5.0 11.0 0.00 0.00 0.00 15 1011.4
20260507211516 87 270 5.0 14.0 0.00 0.00 0.00 14 1011.5
20260507210516 87 90 4.0 9.0 0.00 0.00 0.00 14 1011.5
20260507205516 88 0 5.0 13.0 0.00 0.00 0.00 14 1011.7
20260507204516 88 270 5.0 13.0 0.00 0.00 0.00 14 1011.8
20260507203516 86 225 2.0 15.0 0.00 0.00 0.00 14 1011.9
20260507202516 87 315 7.0 15.0 0.00 0.00 0.00 14 1012.2
20260507201516 88 248 5.0 10.0 0.00 0.00 0.00 14 1012.2
20260507200516 87 248 5.0 10.0 0.00 0.00 0.00 14 1012.4
20260507195516 87 225 4.0 9.0 0.00 0.00 0.00 15 1012.4
20260507194516 86 270 4.0 11.0 0.00 0.00 0.00 15 1012.5
20260507193516 86 293 6.0 13.0 0.00 0.00 0.00 15 1012.7
20260507192516 85 293 6.0 13.0 0.00 0.00 0.00 15 1012.9
20260507191516 85 45 3.0 8.0 0.00 0.00 0.00 16 1012.9
20260507190516 85 203 3.0 7.0 0.00 0.00 0.00 15 1013.1
20260507185516 85 248 2.0 5.0 0.00 0.00 0.00 16 1013.2
20260507184516 84 270 3.0 8.0 0.00 0.00 0.00 16 1013.4
20260507183516 84 293 4.0 10.0 0.00 0.00 0.00 17 1013.6
20260507182516 84 270 3.0 10.0 0.00 0.00 0.00 18 1013.6
20260507181516 84 225 1.0 3.0 0.00 0.00 0.00 16 1013.9
20260507180516 82 338 1.0 3.0 0.00 0.00 0.00 19 1014.0
20260507175516 81 90 1.0 3.0 0.00 0.00 0.00 19 1014.0
20260507174516 80 248 2.0 6.0 0.00 0.00 0.00 20 1014.3
20260507173516 80 270 2.0 4.0 0.00 0.00 0.00 21 1014.5
20260507172516 79 0.0 2.0 0.00 0.00 0.00 21 1014.5
20260507171516 79 248 2.0 6.0 0.00 0.00 0.00 21 1014.6
20260507170516 78 113 2.0 5.0 0.00 0.00 0.00 22 1014.6
20260507165516 77 270 2.0 4.0 0.00 0.00 0.00 23 1014.7
20260507164516 78 203 3.0 7.0 0.00 0.00 0.00 23 1014.7
20260507163516 78 158 2.0 4.0 0.00 0.00 0.00 24 1014.8
20260507162516 77 203 1.0 4.0 0.00 0.00 0.00 24 1014.7
20260507161516 76 225 2.0 6.0 0.00 0.00 0.00 25 1014.8
20260507160516 76 203 2.0 6.0 0.00 0.00 0.00 26 1014.7
20260507155516 75 135 1.0 5.0 0.00 0.00 0.00 25 1014.8
20260507154516 74 135 1.0 2.0 0.00 0.00 0.00 25 1014.9
20260507153516 74 135 1.0 3.0 0.00 0.00 0.00 26 1014.9
20260507152516 72 113 1.0 3.0 0.00 0.00 0.00 27 1014.9
20260507151516 72 135 1.0 4.0 0.00 0.00 0.00 27 1015.1
20260507150516 71 0.0 3.0 0.00 0.00 0.00 28 1015.1
20260507145516 71 180 1.0 4.0 0.00 0.00 0.00 29 1015.1
20260507144516 70 0.0 2.0 0.00 0.00 0.00 29 1015.1
20260507143516 69 0.0 1.0 0.00 0.00 0.00 29 1015.1
20260507142516 67 0.0 0.0 0.00 0.00 0.00 29 1015.0
20260507141516 66 0.0 0.0 0.00 0.00 0.00 31 1015.0
20260507140516 65 0.0 1.0 0.00 0.00 0.00 33 1015.1
20260507135516 64 0.0 0.0 0.00 0.00 0.00 36 1015.1
20260507134516 63 0.0 1.0 0.00 0.00 0.00 33 1015.0
20260507133516 62 0.0 1.0 0.00 0.00 0.00 35 1015.0
20260507132516 61 0.0 2.0 0.00 0.00 0.00 36 1015.0
20260507131516 60 0.0 0.0 0.00 0.00 0.00 37 1014.9
20260507130516 59 0.0 0.0 0.00 0.00 0.00 37 1014.8
20260507125516 59 0.0 1.0 0.00 0.00 0.00 38 1014.8
20260507124516 60 0.0 1.0 0.00 0.00 0.00 36 1014.8
20260507123516 60 0.0 2.0 0.00 0.00 0.00 37 1014.7
20260507122516 60 45 2.0 3.0 0.00 0.00 0.00 36 1014.6
20260507121516 60 68 2.0 3.0 0.00 0.00 0.00 36 1014.7
20260507120516 60 45 3.0 5.0 0.00 0.00 0.00 36 1014.7
20260507115516 60 68 3.0 5.0 0.00 0.00 0.00 36 1014.8
20260507114516 60 68 3.0 5.0 0.00 0.00 0.00 37 1014.8
20260507113516 59 45 3.0 6.0 0.00 0.00 0.00 39 1014.8
20260507112516 59 68 3.0 5.0 0.00 0.00 0.00 40 1014.8
20260507111516 58 68 2.0 5.0 0.00 0.00 0.00 41 1014.7
20260507110516 59 45 1.0 3.0 0.00 0.00 0.00 42 1014.6
20260507105516 59 0.0 0.0 0.00 0.00 0.00 42 1014.6
20260507104516 59 0.0 1.0 0.00 0.00 0.00 40 1014.5
20260507103516 60 0 1.0 3.0 0.00 0.00 0.00 42 1014.5
20260507102516 61 0.0 0.0 0.00 0.00 0.00 39 1014.5
20260507101516 61 45 1.0 4.0 0.00 0.00 0.00 40 1014.4
20260507100516 61 0 2.0 4.0 0.00 0.00 0.00 38 1014.5
20260507095521 61 0 2.0 4.0 0.00 0.00 0.00 39 1014.6
20260507094516 61 0 3.0 4.0 0.00 0.00 0.00 39 1014.6
20260507093516 61 0 2.0 3.0 0.00 0.00 0.00 39 1014.7
20260507092516 61 23 1.0 2.0 0.00 0.00 0.00 38 1014.8
20260507091516 61 45 1.0 2.0 0.00 0.00 0.00 40 1014.9
20260507090516 61 0.0 1.0 0.00 0.00 0.00 40 1015.0
20260507085516 62 68 1.0 2.0 0.00 0.00 0.00 40 1015.0
20260507084516 63 23 2.0 4.0 0.00 0.00 0.00 38 1014.9
20260507083516 63 23 1.0 3.0 0.00 0.00 0.00 37 1014.9
20260507082516 63 45 1.0 3.0 0.00 0.00 0.00 36 1015.0
20260507081516 63 23 2.0 5.0 0.00 0.00 0.00 36 1015.1
20260507080601 63 45 2.0 2.0 0.00 0.00 0.00 37
20260507080016 63 45 1.0 2.0 0.00 0.00 0.00 38 1015.0
20260507075016 64 0 1.0 3.0 0.00 0.00 0.00 36 1014.9
20260507074016 64 0 1.0 3.0 0.00 0.00 0.00 35 1014.9
20260507073016 64 0 1.0 3.0 0.00 0.00 0.00 34 1015.0
20260507072016 64 0 1.0 3.0 0.00 0.00 0.00 35 1015.1
20260507071016 63 0 2.0 4.0 0.00 0.00 0.00 36 1015.0
20260507070016 63 0 3.0 4.0 0.00 0.00 0.00 37 1015.0
20260507065016 63 0 3.0 5.0 0.00 0.00 0.00 38 1015.1
20260507064016 63 0 2.0 4.0 0.00 0.00 0.00 37 1015.1
20260507063016 64 0.0 0.0 0.00 0.00 0.00 38 1015.0
20260507062016 64 0.0 0.0 0.00 0.00 0.00 36 1014.9
20260507061016 64 0.0 0.0 0.00 0.00 0.00 37 1014.9
20260507060016 65 0.0 0.0 0.00 0.00 0.00 34 1014.9
20260507055016 65 0.0 0.0 0.00 0.00 0.00 34 1014.8
20260507054016 65 0 1.0 2.0 0.00 0.00 0.00 34 1014.9
20260507053016 65 0.0 0.0 0.00 0.00 0.00 33 1014.9
20260507052016 65 0.0 0.0 0.00 0.00 0.00 34 1014.8
20260507051016 66 338 1.0 2.0 0.00 0.00 0.00 33 1014.8
20260507050016 66 0 1.0 3.0 0.00 0.00 0.00 32 1014.7
20260507045016 66 0 2.0 3.0 0.00 0.00 0.00 33 1014.7
20260507044016 67 0.0 3.0 0.00 0.00 0.00 31 1014.7
20260507043016 68 0.0 0.0 0.00 0.00 0.00 29 1014.6
20260507042016 68 0.0 0.0 0.00 0.00 0.00 28 1014.5
20260507041016 68 0 2.0 3.0 0.00 0.00 0.00 29 1014.4
20260507040016 69 0 2.0 3.0 0.00 0.00 0.00 29 1014.4
20260507035016 69 0.0 0.0 0.00 0.00 0.00 28 1014.2
20260507034016 70 0 2.0 3.0 0.00 0.00 0.00 28 1013.9
20260507033016 71 0.0 2.0 0.00 0.00 0.00 26 1013.9
20260507032016 72 68 1.0 4.0 0.00 0.00 0.00 25 1013.9
20260507031016 72 315 2.0 7.0 0.00 0.00 0.00 22 1013.6
20260507030016 73 0.0 3.0 0.00 0.00 0.00 22 1013.5
20260507025016 73 293 3.0 8.0 0.00 0.00 0.00 22 1013.5
20260507024021 73 270 5.0 11.0 0.00 0.00 0.00 21 1013.5
20260507023016 73 293 8.0 13.0 0.00 0.00 0.00 21 1013.5
20260507022016 73 293 6.0 11.0 0.00 0.00 0.00 21 1013.5
20260507021016 73 270 6.0 10.0 0.00 0.00 0.00 21 1013.4
20260507020016 74 293 7.0 12.0 0.00 0.00 0.00 21 1013.4
20260507015016 74 293 9.0 15.0 0.00 0.00 0.00 21 1013.3
20260507014016 74 293 6.0 12.0 0.00 0.00 0.00 21 1013.4
20260507013016 75 270 9.0 14.0 0.00 0.00 0.00 21 1013.3
20260507012016 75 293 7.0 13.0 0.00 0.00 0.00 21 1013.3
20260507011016 76 270 6.0 10.0 0.00 0.00 0.00 21 1013.4
20260507010016 76 270 7.0 11.0 0.00 0.00 0.00 21 1013.4
20260507005016 77 270 5.0 12.0 0.00 0.00 0.00 21 1013.4
20260507004016 77 248 5.0 12.0 0.00 0.00 0.00 21 1013.3
20260507003016 77 270 6.0 13.0 0.00 0.00 0.00 21 1013.4
20260507002016 78 270 5.0 13.0 0.00 0.00 0.00 21 1013.3
20260507001016 78 270 5.0 10.0 0.00 0.00 0.00 22 1013.3
20260507000016 78 270 8.0 14.0 0.00 0.00 0.00 22 1013.2
20260506235016 79 248 5.0 12.0 0.00 0.00 0.00 21 1013.1
20260506234016 79 248 5.0 11.0 0.00 0.00 0.00 21 1013.2
20260506233016 79 270 5.0 12.0 0.00 0.00 0.00 22 1013.3
20260506232016 79 225 5.0 12.0 0.00 0.00 0.00 22 1013.4
20260506231016 79 270 5.0 10.0 0.00 0.00 0.00 22 1013.5
20260506230016 78 225 5.0 12.0 0.00 0.00 0.00 22 1013.5